,,Stat6,,Stat2,,Stat8,,Stat9,,Stat10,,Wind1,,Wind1,
time,status,PA1M_AVG,status,PR1M_SUM,status,RH1M_AVG,status,SR1M_AVG,status,TA1M_AVG,status,W1dAve1m,status,W1sAve1m,
2005-08-07, 00:00:00,VALID,918.42,VALID,0,VALID,95.0868,VALID,-0.101885,VALID,18.9533,VALID,218,VALID,0.20846,
2005-08-07, 00:01:00,VALID,918.406,VALID,0,VALID,94.7193,VALID,-0.101885,VALID,19.0079,VALID,297,VALID,0.367188,
2005-08-07, 00:02:00,VALID,918.38,VALID,0,VALID,94.4014,VALID,-0.101885,VALID,19.0693,VALID,293,VALID,0.422602,
2005-08-07, 00:03:00,VALID,918.34,VALID,0,VALID,94.4357,VALID,-0.101885,VALID,19.1018,VALID,297,VALID,0.145486,
2005-08-07, 00:04:00,VALID,918.309,VALID,0,VALID,94.0937,VALID,-0.101885,VALID,19.1343,VALID,346,VALID,0.32728,
2005-08-07, 00:05:01,VALID,918.294,VALID,0,VALID,94.0949,VALID,-0.118866,VALID,19.1666,VALID,302,VALID,0.248698,
2005-08-07, 00:06:00,VALID,918.28,VALID,0,VALID,94.2017,VALID,-0.101885,VALID,19.1952,VALID,302,VALID,0.181463,
2005-08-07, 00:07:01,VALID,918.267,VALID,0,VALID,93.4324,VALID,-0.101885,VALID,19.2014,VALID,60,VALID,0.334872,
2005-08-07, 00:08:00,VALID,918.241,VALID,0,VALID,89.6138,VALID,-0.101885,VALID,19.0789,VALID,31,VALID,0.583133,
2005-08-07, 00:09:01,VALID,918.228,VALID,0,VALID,92.6262,VALID,-0.101885,VALID,18.9332,VALID,51,VALID,0.653711,
2005-08-07, 00:10:01,VALID,918.23,VALID,0,VALID,93.3002,VALID,-0.101885,VALID,18.9565,VALID,59,VALID,0.54851,
2005-08-07, 00:11:00,VALID,918.24,VALID,0,VALID,93.2124,VALID,-0.135847,VALID,18.9466,VALID,59,VALID,0.564103,
2005-08-07, 00:12:01,VALID,918.262,VALID,0,VALID,93.5532,VALID,-0.101885,VALID,18.9244,VALID,59,VALID,0.445313,
2005-08-07, 00:13:00,VALID,918.292,VALID,0,VALID,93.7554,VALID,-0.101885,VALID,18.8725,VALID,59,VALID,0.485973,
2005-08-07, 00:14:00,VALID,918.299,VALID,0,VALID,93.8508,VALID,-0.0339617,VALID,18.7936,VALID,38,VALID,0.473704,
2005-08-07, 00:15:01,VALID,918.292,VALID,0,VALID,94.1992,VALID,-0.0169808,VALID,18.7194,VALID,31,VALID,0.439757,
2005-08-07, 00:16:00,VALID,918.274,VALID,0,VALID,94.6277,VALID,0,VALID,18.6675,VALID,31,VALID,0.37064,
2005-08-07, 00:17:00,VALID,918.242,VALID,0,VALID,94.8337,VALID,0,VALID,18.6126,VALID,29,VALID,0.692578,
2005-08-07, 00:18:00,VALID,918.246,VALID,0,VALID,94.9482,VALID,-0.0169808,VALID,18.5771,VALID,19,VALID,0.923828,
2005-08-07, 00:19:01,VALID,918.24,VALID,0,VALID,95.0257,VALID,0,VALID,18.5418,VALID,21,VALID,1.19479,
2005-08-07, 00:20:00,VALID,918.245,VALID,0,VALID,95.3589,VALID,0,VALID,18.5483,VALID,20,VALID,1.20368,
2005-08-07, 00:21:00,VALID,918.232,VALID,0,VALID,94.9952,VALID,-0.0169808,VALID,18.5773,VALID,20,VALID,0.924964,
2005-08-07, 00:22:00,VALID,918.229,VALID,0,VALID,94.6977,VALID,-0.0169808,VALID,18.5969,VALID,20,VALID,0.817587,
2005-08-07, 00:23:00,VALID,918.233,VALID,0,VALID,94.4828,VALID,0.0169808,VALID,18.6193,VALID,20,VALID,0.844308,
2005-08-07, 00:24:00,VALID,918.229,VALID,0,VALID,94.6519,VALID,0,VALID,18.6456,VALID,20,VALID,0.668968,
2005-08-07, 00:25:00,VALID,918.226,VALID,0,VALID,95.0194,VALID,0,VALID,18.6933,VALID,25,VALID,0.881168,
2005-08-07, 00:26:00,VALID,918.242,VALID,0,VALID,94.4942,VALID,0,VALID,18.765,VALID,20,VALID,0.579613,
2005-08-07, 00:27:00,VALID,918.257,VALID,0,VALID,94.3759,VALID,-0.0339617,VALID,18.8001,VALID,20,VALID,0.393601,
2005-08-07, 00:28:01,VALID,918.28,VALID,0,VALID,94.0784,VALID,0,VALID,18.81,VALID,20,VALID,0.312128,
2005-08-07, 00:29:00,VALID,918.263,VALID,0,VALID,93.7312,VALID,0.0509425,VALID,18.8063,VALID,20,VALID,0.372954,
2005-08-07, 00:30:00,VALID,918.255,VALID,0,VALID,93.805,VALID,0.0509425,VALID,18.7346,VALID,86,VALID,0.664426,
2005-08-07, 00:31:00,VALID,918.213,VALID,0,VALID,93.7618,VALID,0.0679233,VALID,18.6573,VALID,136,VALID,0.967862,
2005-08-07, 00:32:00,VALID,918.171,VALID,0,VALID,94.3721,VALID,0.0679233,VALID,18.5538,VALID,144,VALID,1.08073,
2005-08-07, 00:33:01,VALID,918.168,VALID,0,VALID,94.9736,VALID,0.0849042,VALID,18.4662,VALID,142,VALID,1.06759,
2005-08-07, 00:34:00,VALID,918.186,VALID,0,VALID,95.6615,VALID,0.0509425,VALID,18.4048,VALID,141,VALID,0.742374,
2005-08-07, 00:35:00,VALID,918.188,VALID,0,VALID,95.9629,VALID,0.0849042,VALID,18.4055,VALID,141,VALID,0.553052,
2005-08-07, 00:36:00,VALID,918.195,VALID,0,VALID,95.9883,VALID,0.0339617,VALID,18.4147,VALID,137,VALID,0.635861,
2005-08-07, 00:37:01,VALID,918.178,VALID,0,VALID,95.823,VALID,0.0849042,VALID,18.4758,VALID,134,VALID,0.798633,
2005-08-07, 00:38:00,VALID,918.178,VALID,0,VALID,94.877,VALID,0.0679233,VALID,18.5307,VALID,136,VALID,0.774609,
2005-08-07, 00:39:00,VALID,918.175,VALID,0,VALID,94.6455,VALID,0.101885,VALID,18.521,VALID,147,VALID,0.813565,
2005-08-07, 00:40:00,VALID,918.163,VALID,0,VALID,95.1618,VALID,0.101885,VALID,18.4758,VALID,147,VALID,0.789426,
2005-08-07, 00:41:00,VALID,918.168,VALID,0,VALID,95.5153,VALID,0.0679233,VALID,18.4339,VALID,150,VALID,0.617378,
2005-08-07, 00:42:00,VALID,918.182,VALID,0,VALID,95.7811,VALID,0.101885,VALID,18.3988,VALID,150,VALID,0.47433,
2005-08-07, 00:43:01,VALID,918.184,VALID,0,VALID,96.324,VALID,0.101885,VALID,18.3629,VALID,150,VALID,0.334302,
2005-08-07, 00:44:00,VALID,918.165,VALID,0,VALID,96.7093,VALID,0,VALID,18.3513,VALID,150,VALID,0.292597,
2005-08-07, 00:45:00,VALID,918.144,VALID,0,VALID,96.4601,VALID,0,VALID,18.3548,VALID,150,VALID,0.131541,
2005-08-07, 00:46:00,VALID,918.115,VALID,0,VALID,96.7717,VALID,-0.0169808,VALID,18.332,VALID,150,VALID,0.320871,
2005-08-07, 00:47:00,VALID,918.098,VALID,0,VALID,97.0069,VALID,-0.0169808,VALID,18.3389,VALID,150,VALID,0.265425,
2005-08-07, 00:48:01,VALID,918.087,VALID,0,VALID,97.3324,VALID,-0.0169808,VALID,18.3317,VALID,150,VALID,0.315234,
2005-08-07, 00:49:00,VALID,918.088,VALID,0,VALID,97.0247,VALID,0,VALID,18.4159,VALID,150,VALID,0.267663,
2005-08-07, 00:50:01,VALID,918.075,VALID,0,VALID,96.118,VALID,0,VALID,18.552,VALID,150,VALID,0.249609,
2005-08-07, 00:51:00,VALID,918.04,VALID,0,VALID,95.3805,VALID,0,VALID,18.6548,VALID,150,VALID,0.18559,
2005-08-07, 00:52:01,VALID,918.018,VALID,0,VALID,94.779,VALID,0,VALID,18.745,VALID,150,VALID,0.293241,
2005-08-07, 00:53:00,VALID,917.981,VALID,0,VALID,94.3454,VALID,-0.0169808,VALID,18.8199,VALID,150,VALID,0.39234,
2005-08-07, 00:54:00,VALID,917.962,VALID,0,VALID,94.0046,VALID,-0.0169808,VALID,18.8356,VALID,137,VALID,0.567835,
2005-08-07, 00:55:00,VALID,917.973,VALID,0,VALID,93.9907,VALID,-0.0169808,VALID,18.807,VALID,129,VALID,0.581445,
2005-08-07, 00:56:00,VALID,917.99,VALID,0,VALID,94.1204,VALID,-0.0509425,VALID,18.7519,VALID,141,VALID,0.782986,
2005-08-07, 00:57:00,VALID,918.004,VALID,0,VALID,93.8431,VALID,-0.0169808,VALID,18.6938,VALID,146,VALID,0.814986,
2005-08-07, 00:58:00,VALID,918.003,VALID,0,VALID,94.086,VALID,-0.0339617,VALID,18.6294,VALID,146,VALID,0.600818,
2005-08-07, 00:59:00,VALID,917.997,VALID,0,VALID,94.4942,VALID,-0.101885,VALID,18.5727,VALID,138,VALID,0.540587,
2005-08-07, 01:00:00,VALID,917.982,VALID,0,VALID,94.6163,VALID,-0.101885,VALID,18.5494,VALID,138,VALID,0.442014,
2005-08-07, 01:01:00,VALID,917.958,VALID,0,VALID,94.3569,VALID,-0.0679233,VALID,18.5241,VALID,138,VALID,0.301897,
2005-08-07, 01:02:00,VALID,917.927,VALID,0,VALID,94.8693,VALID,-0.0509425,VALID,18.4819,VALID,135,VALID,0.488715,
2005-08-07, 01:03:00,VALID,917.899,VALID,0,VALID,95.3106,VALID,-0.101885,VALID,18.4595,VALID,134,VALID,0.385653,
2005-08-07, 01:04:00,VALID,917.88,VALID,0,VALID,95.2559,VALID,-0.101885,VALID,18.4207,VALID,134,VALID,0.402071,
2005-08-07, 01:05:00,VALID,917.866,VALID,0,VALID,95.4454,VALID,-0.101885,VALID,18.3951,VALID,134,VALID,0.325149,
2005-08-07, 01:06:01,VALID,917.858,VALID,0,VALID,95.5369,VALID,-0.118866,VALID,18.3725,VALID,134,VALID,0.10245,
2005-08-07, 01:07:00,VALID,917.843,VALID,0,VALID,95.5814,VALID,-0.101885,VALID,18.3559,VALID,134,VALID,0,
2005-08-07, 01:08:00,VALID,917.847,VALID,0,VALID,95.6768,VALID,-0.0849042,VALID,18.3693,VALID,134,VALID,0,
2005-08-07, 01:09:00,VALID,917.851,VALID,0,VALID,94.9431,VALID,-0.101885,VALID,18.3333,VALID,134,VALID,0,
2005-08-07, 01:10:01,VALID,917.848,VALID,0,VALID,94.6951,VALID,-0.101885,VALID,18.3045,VALID,137,VALID,0.390625,
2005-08-07, 01:11:00,VALID,917.834,VALID,0,VALID,94.3289,VALID,-0.101885,VALID,18.2792,VALID,153,VALID,0.359874,
2005-08-07, 01:12:01,VALID,917.837,VALID,0,VALID,95.6717,VALID,-0.0679233,VALID,18.3237,VALID,199,VALID,0.499628,
2005-08-07, 01:13:00,VALID,917.819,VALID,0,VALID,95.1656,VALID,-0.0849042,VALID,18.4113,VALID,252,VALID,0.169792,
2005-08-07, 01:14:00,VALID,917.789,VALID,0,VALID,95.0321,VALID,-0.0169808,VALID,18.3965,VALID,252,VALID,0.269531,
2005-08-07, 01:15:00,VALID,917.781,VALID,0,VALID,94.8426,VALID,0,VALID,18.3682,VALID,252,VALID,0.348895,
2005-08-07, 01:16:01,VALID,917.74,VALID,0,VALID,95.2623,VALID,0,VALID,18.3426,VALID,252,VALID,0.493641,
2005-08-07, 01:17:00,VALID,917.699,VALID,0,VALID,94.1458,VALID,0,VALID,18.239,VALID,339,VALID,0.641146,
2005-08-07, 01:18:00,VALID,917.648,VALID,0,VALID,95.4021,VALID,0,VALID,18.1321,VALID,355,VALID,1.05724,
2005-08-07, 01:19:00,VALID,917.593,VALID,0,VALID,96.6369,VALID,0.0169808,VALID,18.0938,VALID,4,VALID,1.50316,
2005-08-07, 01:20:00,VALID,917.565,VALID,0,VALID,96.6915,VALID,0,VALID,18.1357,VALID,10,VALID,2.17685,
2005-08-07, 01:21:01,VALID,917.563,VALID,0,VALID,95.9883,VALID,-0.0169808,VALID,18.2517,VALID,13,VALID,2.19059,
2005-08-07, 01:22:00,VALID,917.565,VALID,0,VALID,95.3309,VALID,-0.0339617,VALID,18.3585,VALID,11,VALID,1.22532,
2005-08-07, 01:23:01,VALID,917.597,VALID,0,VALID,95.013,VALID,0,VALID,18.4463,VALID,275,VALID,0.830433,
2005-08-07, 01:24:00,VALID,917.611,VALID,0,VALID,95.1224,VALID,-0.0169808,VALID,18.4745,VALID,221,VALID,1.19478,
2005-08-07, 01:25:00,VALID,917.605,VALID,0,VALID,95.5674,VALID,0,VALID,18.5229,VALID,220,VALID,1.67708,
2005-08-07, 01:26:00,VALID,917.591,VALID,0,VALID,95.7035,VALID,0.0169808,VALID,18.7976,VALID,241,VALID,1.29954,
2005-08-07, 01:27:00,VALID,917.564,VALID,0,VALID,94.9609,VALID,-0.0169808,VALID,19.1133,VALID,286,VALID,1.06957,
2005-08-07, 01:28:01,VALID,917.519,VALID,0,VALID,93.3676,VALID,0.0169808,VALID,19.3139,VALID,356,VALID,1.11033,
2005-08-07, 01:29:01,VALID,917.474,VALID,0,VALID,92.3452,VALID,0.0169808,VALID,19.3651,VALID,14,VALID,1.19036,
2005-08-07, 01:30:01,VALID,917.432,VALID,0,VALID,91.3928,VALID,0,VALID,19.3942,VALID,10,VALID,1.07273,
2005-08-07, 01:31:01,VALID,917.43,VALID,0,VALID,91.2414,VALID,0.0169808,VALID,19.3361,VALID,10,VALID,0.950893,
2005-08-07, 01:32:00,VALID,917.426,VALID,0,VALID,91.3139,VALID,-0.0169808,VALID,19.272,VALID,4,VALID,0.515053,
2005-08-07, 01:33:01,VALID,917.422,VALID,0,VALID,91.7857,VALID,0,VALID,19.2004,VALID,7,VALID,0.844866,
2005-08-07, 01:34:01,VALID,917.424,VALID,0,VALID,92.1481,VALID,0.0169808,VALID,19.149,VALID,7,VALID,0.997049,
2005-08-07, 01:35:01,VALID,917.427,VALID,0,VALID,92.3363,VALID,0,VALID,19.1165,VALID,13,VALID,0.698038,
2005-08-07, 01:36:01,VALID,917.452,VALID,0,VALID,92.199,VALID,0,VALID,19.0812,VALID,13,VALID,0.121951,
2005-08-07, 01:37:01,VALID,917.458,VALID,0,VALID,92.611,VALID,0,VALID,19.0325,VALID,13,VALID,0,
2005-08-07, 01:38:01,VALID,917.469,VALID,0,VALID,92.9378,VALID,0,VALID,19.0166,VALID,13,VALID,0.246094,
2005-08-07, 01:39:01,VALID,917.491,VALID,0,VALID,93.2633,VALID,0,VALID,18.9744,VALID,13,VALID,0.360647,
2005-08-07, 01:40:00,VALID,917.493,VALID,0,VALID,93.3968,VALID,0.0169808,VALID,18.9389,VALID,13,VALID,0.272135,
2005-08-07, 01:41:01,VALID,917.512,VALID,0,VALID,93.2824,VALID,-0.0169808,VALID,18.8741,VALID,13,VALID,0.10032,
2005-08-07, 01:42:01,VALID,917.512,VALID,0,VALID,93.8342,VALID,0,VALID,18.8199,VALID,13,VALID,0.262568,
2005-08-07, 01:43:01,VALID,917.527,VALID,0,VALID,94.3505,VALID,0,VALID,18.7837,VALID,13,VALID,0.470703,
2005-08-07, 01:44:01,VALID,917.505,VALID,0,VALID,94.4904,VALID,0.0339617,VALID,18.7643,VALID,13,VALID,0.681424,
2005-08-07, 01:45:01,VALID,917.514,VALID,0,VALID,94.3365,VALID,0,VALID,18.6933,VALID,13,VALID,0.775213,
2005-08-07, 01:46:01,VALID,917.513,VALID,0,VALID,95.1834,VALID,0,VALID,18.6647,VALID,6,VALID,0.626736,
2005-08-07, 01:47:01,VALID,917.513,VALID,0,VALID,95.8103,VALID,0,VALID,18.6834,VALID,356,VALID,0.73819,
2005-08-07, 01:48:01,VALID,917.491,VALID,0,VALID,96.4779,VALID,-0.0169808,VALID,18.7288,VALID,355,VALID,0.55545,
2005-08-07, 01:49:01,VALID,917.461,VALID,0,VALID,96.1397,VALID,0.0169808,VALID,18.7509,VALID,356,VALID,0.505682,
2005-08-07, 01:50:01,VALID,917.433,VALID,0,VALID,95.6933,VALID,0.0339617,VALID,18.7122,VALID,353,VALID,0.567587,
2005-08-07, 01:51:01,VALID,917.391,VALID,0,VALID,96.3622,VALID,0.0339617,VALID,18.732,VALID,355,VALID,0.556548,
2005-08-07, 01:52:01,VALID,917.371,VALID,0,VALID,96.6458,VALID,0,VALID,18.7221,VALID,352,VALID,0.515625,
2005-08-07, 01:53:01,VALID,917.361,VALID,0,VALID,96.717,VALID,0.0169808,VALID,18.7159,VALID,349,VALID,0.453125,
2005-08-07, 01:54:00,VALID,917.378,VALID,0,VALID,96.9064,VALID,0.0339617,VALID,18.7385,VALID,351,VALID,0.0668218,
2005-08-07, 01:55:01,VALID,917.392,VALID,0,VALID,96.8263,VALID,0.0339617,VALID,18.7417,VALID,351,VALID,0.00609756,
2005-08-07, 01:56:01,VALID,917.427,VALID,0,VALID,96.5873,VALID,0.0169808,VALID,18.7514,VALID,351,VALID,0.203683,
2005-08-07, 01:57:01,VALID,917.451,VALID,0,VALID,96.1498,VALID,0.0169808,VALID,18.7288,VALID,351,VALID,0.0442073,
2005-08-07, 01:58:01,VALID,917.485,VALID,0,VALID,96.132,VALID,0.0169808,VALID,18.7452,VALID,351,VALID,0.064596,
2005-08-07, 01:59:01,VALID,917.51,VALID,0,VALID,95.9057,VALID,-0.0679233,VALID,18.7353,VALID,351,VALID,0.0215693,
2005-08-07, 02:00:01,VALID,917.524,VALID,0,VALID,95.7493,VALID,-0.0339617,VALID,18.7327,VALID,351,VALID,0,
2005-08-07, 02:01:01,VALID,917.527,VALID,0,VALID,96.0303,VALID,-0.0339617,VALID,18.7251,VALID,48,VALID,0.208212,
2005-08-07, 02:02:01,VALID,917.529,VALID,0,VALID,96.2299,VALID,-0.0339617,VALID,18.7579,VALID,85,VALID,0.194957,
2005-08-07, 02:03:01,VALID,917.529,VALID,0,VALID,96.3151,VALID,-0.0339617,VALID,18.7703,VALID,85,VALID,0.0240091,
2005-08-07, 02:04:01,VALID,917.51,VALID,0,VALID,95.9896,VALID,-0.0169808,VALID,18.7931,VALID,85,VALID,0.109738,
2005-08-07, 02:05:01,VALID,917.496,VALID,0,VALID,96.0888,VALID,0,VALID,18.7936,VALID,85,VALID,0.00725446,
2005-08-07, 02:06:01,VALID,917.503,VALID,0,VALID,96.1689,VALID,0,VALID,18.8063,VALID,85,VALID,0,
2005-08-07, 02:07:01,VALID,917.492,VALID,0,VALID,96.249,VALID,-0.0169808,VALID,18.8095,VALID,85,VALID,0.0443892,
2005-08-07, 02:08:01,VALID,917.508,VALID,0,VALID,96.5542,VALID,-0.0169808,VALID,18.816,VALID,85,VALID,0.179142,
2005-08-07, 02:09:01,VALID,917.5,VALID,0,VALID,96.7691,VALID,-0.0339617,VALID,18.8123,VALID,85,VALID,0.276634,
2005-08-07, 02:10:01,VALID,917.509,VALID,0,VALID,96.9115,VALID,-0.0509425,VALID,18.8224,VALID,60,VALID,0.345982,
2005-08-07, 02:11:01,VALID,917.525,VALID,0,VALID,97.2282,VALID,-0.0169808,VALID,18.8413,VALID,31,VALID,0.136905,
2005-08-07, 02:12:01,VALID,917.525,VALID,0,VALID,97.4723,VALID,-0.0339617,VALID,18.8545,VALID,31,VALID,0.315039,
2005-08-07, 02:13:01,VALID,917.534,VALID,0,VALID,97.8284,VALID,-0.0339617,VALID,18.8674,VALID,28,VALID,0.536222,
2005-08-07, 02:14:01,VALID,917.53,VALID,0,VALID,98.1399,VALID,-0.0339617,VALID,18.8835,VALID,3,VALID,0.61849,
2005-08-07, 02:15:01,VALID,917.539,VALID,0,VALID,98.5608,VALID,-0.0169808,VALID,18.9253,VALID,25,VALID,1.16311,
2005-08-07, 02:16:01,VALID,917.54,VALID,0,VALID,98.6994,VALID,-0.0509425,VALID,18.9486,VALID,15,VALID,0.589177,
2005-08-07, 02:17:01,VALID,917.538,VALID,0,VALID,98.7083,VALID,-0.0169808,VALID,18.9347,VALID,5,VALID,0.357013,
2005-08-07, 02:18:00,VALID,917.528,VALID,0,VALID,98.9079,VALID,-0.0169808,VALID,18.9414,VALID,14,VALID,0.731136,
2005-08-07, 02:19:00,VALID,917.519,VALID,0,VALID,99.0198,VALID,0,VALID,18.9377,VALID,21,VALID,0.925868,
2005-08-07, 02:20:00,VALID,917.514,VALID,0,VALID,99.2119,VALID,0,VALID,18.964,VALID,19,VALID,0.90811,
2005-08-07, 02:21:00,VALID,917.486,VALID,0,VALID,99.3759,VALID,-0.0169808,VALID,18.9742,VALID,8,VALID,0.471875,
2005-08-07, 02:22:00,VALID,917.473,VALID,0,VALID,99.5043,VALID,-0.0169808,VALID,18.9804,VALID,19,VALID,0.905134,
2005-08-07, 02:23:00,VALID,917.469,VALID,0,VALID,99.6137,VALID,0,VALID,18.9936,VALID,17,VALID,0.766387,
2005-08-07, 02:24:00,VALID,917.462,VALID,0,VALID,99.6671,VALID,0,VALID,18.9769,VALID,13,VALID,0.371951,
2005-08-07, 02:25:00,VALID,917.455,VALID,0.2,VALID,99.7383,VALID,0,VALID,18.9767,VALID,21,VALID,1.3231,
2005-08-07, 02:26:00,VALID,917.462,VALID,0,VALID,99.8311,VALID,-0.0169808,VALID,18.9802,VALID,19,VALID,1.24361,
2005-08-07, 02:27:00,VALID,917.448,VALID,0,VALID,99.9278,VALID,-0.0169808,VALID,18.9603,VALID,24,VALID,1.26879,
2005-08-07, 02:28:00,VALID,917.436,VALID,0.2,VALID,99.9769,VALID,-0.0509425,VALID,18.9384,VALID,19,VALID,1.50877,
2005-08-07, 02:29:00,VALID,917.411,VALID,0,VALID,100,VALID,-0.0169808,VALID,18.929,VALID,27,VALID,1.33296,
2005-08-07, 02:30:00,VALID,917.383,VALID,0,VALID,100,VALID,-0.0169808,VALID,18.9352,VALID,14,VALID,1.52266,
2005-08-07, 02:31:00,VALID,917.347,VALID,0,VALID,100,VALID,0,VALID,18.9315,VALID,11,VALID,1.2827,
2005-08-07, 02:32:00,VALID,917.329,VALID,0,VALID,100,VALID,-0.0509425,VALID,18.9412,VALID,3,VALID,1.03307,
2005-08-07, 02:33:00,VALID,917.298,VALID,0,VALID,100,VALID,0,VALID,18.9347,VALID,13,VALID,1.5151,
2005-08-07, 02:34:00,VALID,917.303,VALID,0,VALID,100,VALID,-0.0169808,VALID,18.928,VALID,6,VALID,1.4974,
2005-08-07, 02:35:00,VALID,917.283,VALID,0,VALID,100,VALID,-0.0169808,VALID,18.9149,VALID,9,VALID,1.33103,
2005-08-07, 02:36:00,VALID,917.272,VALID,0,VALID,100,VALID,-0.0169808,VALID,18.8925,VALID,15,VALID,1.69531,
2005-08-07, 02:37:00,VALID,917.236,VALID,0,VALID,100,VALID,0,VALID,18.8632,VALID,13,VALID,1.52271,
2005-08-07, 02:38:00,VALID,917.204,VALID,0.2,VALID,100,VALID,0,VALID,18.8443,VALID,14,VALID,1.63449,
2005-08-07, 02:39:00,VALID,917.204,VALID,0,VALID,100,VALID,-0.0169808,VALID,18.7957,VALID,352,VALID,1.34392,
2005-08-07, 02:40:00,VALID,917.21,VALID,0,VALID,100,VALID,-0.0169808,VALID,18.7537,VALID,342,VALID,1.05069,
2005-08-07, 02:41:00,VALID,917.228,VALID,0,VALID,100,VALID,-0.0169808,VALID,18.7279,VALID,340,VALID,1.37396,
2005-08-07, 02:42:00,VALID,917.241,VALID,0,VALID,100,VALID,-0.0169808,VALID,18.7214,VALID,344,VALID,0.806784,
2005-08-07, 02:43:00,VALID,917.255,VALID,0,VALID,100,VALID,0,VALID,18.7313,VALID,270,VALID,0.939583,
2005-08-07, 02:44:00,VALID,917.268,VALID,0,VALID,100,VALID,0,VALID,18.7413,VALID,297,VALID,0.655523,
2005-08-07, 02:45:00,VALID,917.274,VALID,0,VALID,100,VALID,-0.0169808,VALID,18.7378,VALID,18,VALID,0.763494,
2005-08-07, 02:46:00,VALID,917.277,VALID,0,VALID,100,VALID,0,VALID,18.7509,VALID,14,VALID,0.654464,
2005-08-07, 02:47:00,VALID,917.306,VALID,0,VALID,100,VALID,0,VALID,18.7472,VALID,6,VALID,0.420508,
2005-08-07, 02:48:00,VALID,917.337,VALID,0,VALID,100,VALID,0,VALID,18.7576,VALID,347,VALID,0.702381,
2005-08-07, 02:49:00,VALID,917.362,VALID,0,VALID,100,VALID,-0.0339617,VALID,18.7343,VALID,336,VALID,0.905488,
2005-08-07, 02:50:00,VALID,917.373,VALID,0,VALID,100,VALID,0,VALID,18.7283,VALID,341,VALID,0.845052,
2005-08-07, 02:51:00,VALID,917.35,VALID,0,VALID,100,VALID,-0.0679233,VALID,18.7147,VALID,354,VALID,0.669471,
2005-08-07, 02:52:00,VALID,917.35,VALID,0,VALID,100,VALID,-0.0169808,VALID,18.7274,VALID,16,VALID,0.896802,
2005-08-07, 02:53:00,VALID,917.336,VALID,0,VALID,100,VALID,0,VALID,18.747,VALID,18,VALID,0.721839,
2005-08-07, 02:54:00,VALID,917.323,VALID,0,VALID,100,VALID,-0.0169808,VALID,18.7602,VALID,17,VALID,1.20367,
2005-08-07, 02:55:00,VALID,917.324,VALID,0,VALID,100,VALID,0,VALID,18.7507,VALID,13,VALID,1.28683,
2005-08-07, 02:56:00,VALID,917.327,VALID,0,VALID,100,VALID,0,VALID,18.7378,VALID,351,VALID,1.03368,
2005-08-07, 02:57:00,VALID,917.335,VALID,0,VALID,100,VALID,-0.0509425,VALID,18.7152,VALID,347,VALID,1.09902,
2005-08-07, 02:58:00,VALID,917.318,VALID,0,VALID,100,VALID,0,VALID,18.7152,VALID,345,VALID,0.769886,
2005-08-07, 02:59:00,VALID,917.292,VALID,0,VALID,100,VALID,-0.0509425,VALID,18.7224,VALID,355,VALID,0.839558,
2005-08-07, 03:00:00,VALID,917.267,VALID,0,VALID,100,VALID,-0.0339617,VALID,18.7191,VALID,4,VALID,1.08995,
2005-08-07, 03:01:00,VALID,917.252,VALID,0,VALID,100,VALID,-0.0339617,VALID,18.7226,VALID,2,VALID,1.0278,
2005-08-07, 03:02:00,VALID,917.237,VALID,0,VALID,100,VALID,-0.0509425,VALID,18.7092,VALID,6,VALID,0.99782,
2005-08-07, 03:03:00,VALID,917.228,VALID,0,VALID,100,VALID,-0.0339617,VALID,18.7057,VALID,339,VALID,0.883507,
2005-08-07, 03:04:00,VALID,917.214,VALID,0,VALID,100,VALID,-0.0679233,VALID,18.7127,VALID,347,VALID,1.01451,
2005-08-07, 03:05:00,VALID,917.195,VALID,0,VALID,100,VALID,-0.0509425,VALID,18.7027,VALID,4,VALID,1.1423,
2005-08-07, 03:06:00,VALID,917.173,VALID,0,VALID,100,VALID,-0.0339617,VALID,18.6993,VALID,5,VALID,1.33812,
2005-08-07, 03:07:00,VALID,917.139,VALID,0,VALID,100,VALID,-0.0339617,VALID,18.7122,VALID,357,VALID,1.4215,
2005-08-07, 03:08:00,VALID,917.121,VALID,0,VALID,100,VALID,-0.0339617,VALID,18.7055,VALID,351,VALID,1.43108,
2005-08-07, 03:09:00,VALID,917.118,VALID,0,VALID,100,VALID,0,VALID,18.706,VALID,359,VALID,1.23136,
2005-08-07, 03:10:00,VALID,917.116,VALID,0,VALID,100,VALID,-0.0339617,VALID,18.6961,VALID,339,VALID,1.34837,
2005-08-07, 03:11:00,VALID,917.098,VALID,0,VALID,100,VALID,-0.0169808,VALID,18.6933,VALID,353,VALID,1.37538,
2005-08-07, 03:12:00,VALID,917.103,VALID,0,VALID,100,VALID,-0.0169808,VALID,18.6995,VALID,358,VALID,1.28181,
2005-08-07, 03:13:00,VALID,917.074,VALID,0,VALID,100,VALID,-0.0339617,VALID,18.7062,VALID,354,VALID,1.07286,
2005-08-07, 03:14:00,VALID,917.057,VALID,0,VALID,100,VALID,-0.0169808,VALID,18.7161,VALID,13,VALID,1.34956,
2005-08-07, 03:15:00,VALID,917.058,VALID,0,VALID,100,VALID,-0.0169808,VALID,18.7055,VALID,359,VALID,0.965376,
2005-08-07, 03:16:00,VALID,917.039,VALID,0,VALID,100,VALID,-0.0339617,VALID,18.7256,VALID,359,VALID,0.94549,
2005-08-07, 03:17:00,VALID,917.04,VALID,0,VALID,100,VALID,-0.0169808,VALID,18.7124,VALID,4,VALID,0.790483,
2005-08-07, 03:18:00,VALID,917.039,VALID,0,VALID,100,VALID,-0.0509425,VALID,18.7253,VALID,14,VALID,0.949033,
2005-08-07, 03:19:00,VALID,917.042,VALID,0,VALID,100,VALID,-0.0339617,VALID,18.7127,VALID,4,VALID,0.934126,
2005-08-07, 03:20:00,VALID,917.043,VALID,0,VALID,100,VALID,-0.0339617,VALID,18.7057,VALID,328,VALID,1.10956,
2005-08-07, 03:21:00,VALID,917.022,VALID,0,VALID,100,VALID,-0.0169808,VALID,18.7057,VALID,337,VALID,1.20666,
2005-08-07, 03:22:00,VALID,916.99,VALID,0,VALID,100,VALID,-0.0339617,VALID,18.706,VALID,1,VALID,1.22093,
2005-08-07, 03:23:00,VALID,916.975,VALID,0,VALID,100,VALID,-0.0339617,VALID,18.7122,VALID,12,VALID,1.75037,
2005-08-07, 03:24:00,VALID,916.958,VALID,0,VALID,100,VALID,-0.0169808,VALID,18.7318,VALID,6,VALID,1.51653,
2005-08-07, 03:25:00,VALID,916.96,VALID,0,VALID,100,VALID,-0.0169808,VALID,18.7316,VALID,13,VALID,1.11239,
2005-08-07, 03:26:00,VALID,916.964,VALID,0,VALID,100,VALID,0,VALID,18.7479,VALID,12,VALID,1.57515,
2005-08-07, 03:27:00,VALID,916.971,VALID,0,VALID,100,VALID,-0.0169808,VALID,18.7609,VALID,14,VALID,1.09432,
2005-08-07, 03:28:00,VALID,916.972,VALID,0,VALID,100,VALID,0,VALID,18.7671,VALID,23,VALID,1.14986,
2005-08-07, 03:29:00,VALID,916.997,VALID,0,VALID,100,VALID,-0.0169808,VALID,18.7634,VALID,17,VALID,0.933771,
2005-08-07, 03:30:00,VALID,916.998,VALID,0,VALID,100,VALID,0,VALID,18.7835,VALID,17,VALID,0.727289,
2005-08-07, 03:31:00,VALID,917.006,VALID,0,VALID,100,VALID,-0.0169808,VALID,18.8026,VALID,5,VALID,0.728379,
2005-08-07, 03:32:00,VALID,917.018,VALID,0,VALID,100,VALID,-0.0509425,VALID,18.8086,VALID,358,VALID,0.466704,
2005-08-07, 03:33:00,VALID,917.013,VALID,0,VALID,100,VALID,0,VALID,18.8157,VALID,3,VALID,0.94407,
2005-08-07, 03:34:00,VALID,917.016,VALID,0,VALID,100,VALID,0,VALID,18.7991,VALID,12,VALID,1.02961,
2005-08-07, 03:35:00,VALID,917.012,VALID,0,VALID,100,VALID,-0.0169808,VALID,18.8058,VALID,17,VALID,1.14862,
2005-08-07, 03:36:00,VALID,916.993,VALID,0,VALID,100,VALID,0,VALID,18.8028,VALID,18,VALID,1.25515,